| time (UTC) | temp F | wind direction | speed MPH | gust MPH | rain 1hr in | rain 24hr in | rain mn in | humidity % | barometer mb |
| 20260503211409 | 62 | 238 | 1.0 | 1.0 | 0.00 | 0.00 | 0.00 | 96 | 1018.6 |
| 20260503210219 | 62 | 236 | 0.0 | 1.0 | 0.00 | 0.00 | 0.00 | 96 | 1018.7 |
| 20260503205005 | 61 | 0.0 | 1.0 | 0.00 | 0.00 | 0.00 | 96 | 1018.3 | |
| 20260503203816 | 61 | 237 | 1.0 | 1.0 | 0.00 | 0.00 | 0.00 | 96 | 1018.5 |
| 20260503202649 | 61 | 236 | 0.0 | 1.0 | 0.00 | 0.00 | 0.00 | 96 | 1018.4 |
| 20260503201436 | 61 | 0.0 | 1.0 | 0.00 | 0.00 | 0.00 | 95 | 1018.3 | |
| 20260503200205 | 61 | 0.0 | 0.0 | 0.00 | 0.00 | 0.00 | 95 | 1018.2 | |
| 20260503195015 | 61 | 237 | 0.0 | 1.0 | 0.00 | 0.00 | 0.00 | 95 | 1018.3 |
| 20260503193722 | 61 | 0.0 | 0.0 | 0.00 | 0.00 | 0.00 | 95 | 1018.4 | |
| 20260503192716 | 62 | 0.0 | 1.0 | 0.00 | 0.00 | 0.00 | 95 | 1018.4 | |
| 20260503191446 | 62 | 206 | 1.0 | 2.0 | 0.00 | 0.00 | 0.00 | 96 | 1018.4 |
| 20260503190151 | 62 | 132 | 0.0 | 1.0 | 0.00 | 0.00 | 0.00 | 96 | 1018.4 |
| 20260503185100 | 62 | 170 | 1.0 | 2.0 | 0.00 | 0.00 | 0.00 | 96 | 1018.5 |
| 20260503183811 | 61 | 148 | 0.0 | 1.0 | 0.00 | 0.00 | 0.00 | 96 | 1018.5 |
| 20260503182620 | 61 | 0.0 | 0.0 | 0.00 | 0.00 | 0.00 | 96 | 1018.6 | |
| 20260503181429 | 61 | 0.0 | 1.0 | 0.00 | 0.00 | 0.00 | 96 | 1018.5 | |
| 20260503180319 | 61 | 175 | 0.0 | 1.0 | 0.00 | 0.00 | 0.00 | 96 | 1018.6 |
| 20260503174944 | 61 | 188 | 1.0 | 2.0 | 0.00 | 0.00 | 0.00 | 96 | 1018.5 |
| 20260503173831 | 60 | 119 | 1.0 | 2.0 | 0.00 | 0.00 | 0.00 | 96 | 1018.4 |
| 20260503172601 | 60 | 141 | 2.0 | 3.0 | 0.00 | 0.00 | 0.00 | 96 | 1018.5 |
| 20260503171409 | 59 | 146 | 1.0 | 1.0 | 0.00 | 0.00 | 0.00 | 96 | 1018.7 |
| 20260503170217 | 60 | 181 | 0.0 | 1.0 | 0.00 | 0.00 | 0.00 | 96 | 1018.7 |
| 20260503150149 | 61 | 88 | 1.0 | 2.0 | 0.00 | 0.00 | 0.00 | 95 | 1019.7 |
| 20260503140228 | 61 | 173 | 1.0 | 1.0 | 0.00 | 0.00 | 0.00 | 95 | 1020.2 |
| 20260503131404 | 61 | 162 | 0.0 | 1.0 | 0.00 | 0.00 | 0.00 | 95 | 1020.6 |
| 20260503130214 | 61 | 173 | 0.0 | 1.0 | 0.00 | 0.00 | 0.00 | 95 | 1020.6 |
| 20260503120156 | 61 | 152 | 1.0 | 2.0 | 0.00 | 0.00 | 0.00 | 95 | 1021.4 |
| 20260503110245 | 61 | 0.0 | 1.0 | 0.00 | 0.00 | 0.00 | 94 | 1021.2 | |
| 20260503100216 | 62 | 0.0 | 0.0 | 0.00 | 0.00 | 0.00 | 92 | 1021.1 | |
| 20260503090240 | 66 | 0.0 | 0.0 | 0.00 | 0.00 | 0.00 | 88 | 1021.2 | |
| 20260503081439 | 69 | 306 | 2.0 | 4.0 | 0.00 | 0.00 | 0.00 | 84 | 1020.9 |
| 20260503080249 | 69 | 335 | 4.0 | 7.0 | 0.00 | 0.00 | 0.00 | 83 | 1020.8 |
| 20260503072513 | 70 | 332 | 6.0 | 8.0 | 0.00 | 0.00 | 0.00 | 81 | 1020.7 |
| 20260503071425 | 71 | 337 | 3.0 | 7.0 | 0.00 | 0.00 | 0.00 | 79 | 1020.7 |
| 20260503070234 | 71 | 326 | 6.0 | 10.0 | 0.00 | 0.00 | 0.00 | 78 | 1020.6 |
| 20260503060221 | 73 | 349 | 5.0 | 11.0 | 0.00 | 0.00 | 0.00 | 72 | 1020.9 |
| 20260503055111 | 73 | 334 | 3.0 | 10.0 | 0.00 | 0.00 | 0.00 | 72 | 1020.9 |
| 20260503053738 | 74 | 356 | 5.0 | 10.0 | 0.00 | 0.00 | 0.00 | 72 | 1021.0 |
| 20260503052547 | 74 | 24 | 6.0 | 14.0 | 0.00 | 0.00 | 0.00 | 71 | 1021.1 |
| 20260503051501 | 75 | 350 | 7.0 | 13.0 | 0.00 | 0.00 | 0.00 | 70 | 1021.1 |
| 20260503050208 | 73 | 47 | 4.0 | 11.0 | 0.00 | 0.00 | 0.00 | 72 | 1021.1 |
| 20260503045056 | 73 | 344 | 3.0 | 13.0 | 0.00 | 0.00 | 0.00 | 71 | 1021.2 |
| 20260503043827 | 73 | 356 | 3.0 | 9.0 | 0.00 | 0.00 | 0.00 | 70 | 1021.3 |
| 20260503042533 | 73 | 10 | 3.0 | 10.0 | 0.00 | 0.00 | 0.00 | 69 | 1021.3 |
| 20260503041424 | 74 | 78 | 5.0 | 13.0 | 0.00 | 0.00 | 0.00 | 69 | 1021.3 |
| 20260503040257 | 74 | 326 | 3.0 | 6.0 | 0.00 | 0.00 | 0.00 | 68 | 1021.4 |
| 20260503035044 | 74 | 343 | 5.0 | 10.0 | 0.00 | 0.00 | 0.00 | 66 | 1021.4 |
| 20260503033814 | 73 | 345 | 7.0 | 10.0 | 0.00 | 0.00 | 0.00 | 67 | 1021.7 |
| 20260503032601 | 74 | 319 | 7.0 | 14.0 | 0.00 | 0.00 | 0.00 | 63 | 1021.9 |
| 20260503031331 | 74 | 343 | 5.0 | 9.0 | 0.00 | 0.00 | 0.00 | 62 | 1021.8 |
| 20260503030244 | 75 | 306 | 5.0 | 9.0 | 0.00 | 0.00 | 0.00 | 60 | 1022.1 |
| 20260503024950 | 75 | 287 | 3.0 | 4.0 | 0.00 | 0.00 | 0.00 | 60 | 1022.3 |
| 20260503023759 | 75 | 341 | 7.0 | 13.0 | 0.00 | 0.00 | 0.00 | 61 | 1022.5 |
| 20260503021316 | 76 | 315 | 4.0 | 9.0 | 0.00 | 0.00 | 0.00 | 56 | 1022.9 |
| 20260503020229 | 76 | 321 | 5.0 | 14.0 | 0.00 | 0.00 | 0.00 | 54 | 1023.1 |
| 20260503015039 | 75 | 298 | 4.0 | 13.0 | 0.00 | 0.00 | 0.00 | 54 | 1023.3 |
| 20260503013746 | 75 | 342 | 8.0 | 13.0 | 0.00 | 0.00 | 0.00 | 53 | 1023.5 |
| 20260503012636 | 75 | 300 | 6.0 | 15.0 | 0.00 | 0.00 | 0.00 | 53 | 1023.7 |
| 20260503011406 | 75 | 308 | 6.0 | 13.0 | 0.00 | 0.00 | 0.00 | 55 | 1024.0 |
| 20260503010216 | 75 | 267 | 7.0 | 13.0 | 0.00 | 0.00 | 0.00 | 55 | 1024.3 |
| 20260503005106 | 74 | 311 | 4.0 | 11.0 | 0.00 | 0.00 | 0.00 | 59 | 1024.5 |
| 20260503003813 | 73 | 297 | 3.0 | 7.0 | 0.00 | 0.00 | 0.00 | 60 | 1024.5 |
| 20260503002543 | 73 | 290 | 4.0 | 8.0 | 0.00 | 0.00 | 0.00 | 62 | 1024.8 |
| 20260503001351 | 73 | 293 | 4.0 | 8.0 | 0.00 | 0.00 | 0.00 | 64 | 1024.8 |
| 20260503000203 | 71 | 295 | 5.0 | 9.0 | 0.00 | 0.00 | 0.00 | 66 | 1025.0 |
| 20260502235051 | 71 | 288 | 6.0 | 10.0 | 0.00 | 0.00 | 0.00 | 67 | 1025.2 |
| 20260502233821 | 71 | 284 | 5.0 | 7.0 | 0.00 | 0.00 | 0.00 | 68 | 1025.1 |
| 20260502232527 | 71 | 294 | 5.0 | 9.0 | 0.00 | 0.00 | 0.00 | 70 | 1025.0 |
| 20260502231337 | 70 | 300 | 5.0 | 9.0 | 0.00 | 0.00 | 0.00 | 71 | 1025.1 |
| 20260502230250 | 69 | 270 | 4.0 | 8.0 | 0.00 | 0.00 | 0.00 | 74 | 1025.2 |
| 20260502224957 | 69 | 286 | 4.0 | 9.0 | 0.00 | 0.00 | 0.00 | 75 | 1025.6 |
| 20260502223847 | 68 | 280 | 6.0 | 10.0 | 0.00 | 0.00 | 0.00 | 76 | 1025.4 |
| 20260502222617 | 68 | 291 | 3.0 | 6.0 | 0.00 | 0.00 | 0.00 | 77 | 1025.3 |
| 20260502221323 | 68 | 282 | 4.0 | 7.0 | 0.00 | 0.00 | 0.00 | 78 | 1025.5 |
| 20260502220236 | 67 | 264 | 4.0 | 7.0 | 0.00 | 0.00 | 0.00 | 77 | 1025.3 |
| 20260502215127 | 66 | 250 | 3.0 | 3.0 | 0.00 | 0.00 | 0.00 | 81 | 1025.3 |
| 20260502213754 | 66 | 254 | 1.0 | 2.0 | 0.00 | 0.00 | 0.00 | 80 | 1025.4 |
| 20260502212644 | 66 | 252 | 3.0 | 4.0 | 0.00 | 0.00 | 0.00 | 79 | 1025.4 |